Regional Weather Roundup
Issued by NWS

Home | Current Version | Previous Version | Graphics & Text | Print | Product List | Glossary On
Versions: 1 2 3 4 5 6 7 8 9 10 11 12 13 14 15 16 17 18 19 20 21 22 23 24 25 26 27 28 29 30 31 32 33 34 35 36 37 38 39 40 41 42 43 44 45 46 47 48 49 50
928
ASUS43 KLMK 250610
RWRKY
KENTUCKY REGIONAL WEATHER ROUNDUP
NATIONAL WEATHER SERVICE LOUISVILLE KY
100 AM EST SAT FEB 25 2017

NOTE "FAIR" INDICATES FEW OR NO CLOUDS BELOW 12,000 FEET
WITH NO SIGNIFICANT WEATHER AND/OR OBSTRUCTIONS TO VISIBILITY.

KYZ001>023-026-027-061>063-070>075-250700-
WESTERN AND SOUTH CENTRAL KENTUCKY

CITY           SKY/WX    TMP DP  RH WIND       PRES   REMARKS
PADUCAH        PTCLDY    48  30  49 W17G28    29.80R
HENDERSON      MOCLDY    45  34  65 W13       29.75R
OWENSBORO      MOCLDY    47  37  68 NW10      29.75R
HOPKINSVILLE   MOCLDY    55  30  38 W12       29.74R
BOWLING GREEN  CLOUDY    56  40  55 NW7       29.73R
GLASGOW        CLOUDY    56  37  49 NW13G22   29.70R
$$

KYZ024-025-028>034-038-045-046-053-250700-
NORTH CENTRAL KENTUCKY

CITY           SKY/WX    TMP DP  RH WIND       PRES   REMARKS
LOUISVILLE/SDF CLOUDY    53  41  63 W9        29.67R
LOUISVILLE/LOU CLOUDY    53  43  68 W12       29.67R
FORT KNOX      CLOUDY    50  41  71 W9        29.67R
$$

KYZ035>037-039>044-047>052-055>060-089>105-250700-
NORTHEAST KENTUCKY

CITY           SKY/WX    TMP DP  RH WIND       PRES   REMARKS
LEXINGTON      LGT RAIN  54  42  64 NW15G23   29.66R
COVINGTON      MOCLDY    50  42  74 NW13      29.64R
FRANKFORT      CLOUDY    54  37  52 NW10      29.65R
$$

KYZ054-064>069-076>088-106>120-250700-
SOUTHEAST KENTUCKY

CITY           SKY/WX    TMP DP  RH WIND       PRES   REMARKS
JACKSON        CLOUDY    65  52  62 W14G23    29.65R
LONDON         TSTM      57  53  86 NW10      29.62F
SOMERSET       TSTM      55  55 100 W8        29.70R
MIDDLESBORO    CLOUDY    68  52  56 S8        29.67F
MONTICELLO     RAIN      58  56  93 W14       29.70R
$$





USA.gov is the U.S. government's official web portal to all federal, state and local government web resources and services.